Moses Lake, WA

2:55 PM PST on February 22, 2017 (GMT -0800)
Grant County International

Weather History for KMWH - August, 2013

Change the Weather History Date:

Saturday, August 31, 2013

  Actual Average Record
Temperature  
Mean Temperature 70 °F 68 °F  
Max Temperature 90 °F 84 °F 99 °F (1998)
Min Temperature 50 °F 52 °F 40 °F (1981)
Degree Days  
Heating Degree Days 0 1  
Month to date heating degree days 0 8  
Since 1 June heating degree days 49 75  
Since 1 July heating degree days 0 20  
Cooling Degree Days 5 4  
Month to date cooling degree days 280 216  
Year to date cooling degree days 813 570  
Since 1 June cooling degree days 763 545  
Growing Degree Days 20 (Base 50)    
Moisture  
Dew Point 44 °F    
Average Humidity 48    
Maximum Humidity 77    
Minimum Humidity 19    
Precipitation  
Precipitation 0.00 in 0.01 in 0.07 in (2010)
Month to date precipitation 0.56 0.25  
Year to date precipitation 4.31 5.43  
Sea Level Pressure  
Sea Level Pressure 29.97 in    
Wind  
Wind Speed 5 mph (North)    
Max Wind Speed 13 mph    
Max Gust Speed 16 mph    
Visibility 10 miles    
Events      
T = Trace of Precipitation, MM = Missing Value Source: NWS Daily Summary

Daily Weather History Graph

Daily Weather History Graph

Search for Another Location

Airport or City:

Trip Planner

Search our weather history database for the weather conditions in past years. The results will help you decide how hot, cold, wet, or windy it might be!

Date:

Astronomy

Aug. 31, 2013 Rise Set
Actual Time 6:15 AM PDT 7:38 PM PDT
Civil Twilight 5:43 AM PDT 8:10 PM PDT
Nautical Twilight 5:05 AM PDT 8:48 PM PDT
Astronomical Twilight 4:23 AM PDT 9:29 PM PDT
Moon 1:37 AM PDT (8/31) 4:50 PM PDT (8/31)
Length of Visible Light 14h 26m
Length of Day
13h 22m
Waning Crescent, 20% of the Moon is Illuminated
Aug 31
Waning Crescent
Sep 5
New
Sep 12
First Quarter
Sep 19
Full
Sep 26
Last Quarter

Hourly Weather History & Observations

Time (PDT) Temp. Dew Point Humidity Pressure Visibility Wind Dir Wind Speed Gust Speed Precip Events Conditions
12:52 AM 61.0 °F 45.0 °F 56% 30.04 in 10.0 mi Calm Calm - N/A   Clear
1:52 AM 57.0 °F 45.0 °F 64% 30.05 in 10.0 mi Calm Calm - N/A   Clear
2:52 AM 55.0 °F 45.0 °F 69% 30.05 in 10.0 mi Calm Calm - N/A   Clear
3:52 AM 53.1 °F 43.0 °F 69% 30.04 in 10.0 mi North 4.6 mph - N/A   Clear
4:52 AM 52.0 °F 45.0 °F 77% 30.05 in 10.0 mi North 3.5 mph - N/A   Clear
5:52 AM 52.0 °F 42.1 °F 69% 30.06 in 10.0 mi NNE 4.6 mph - N/A   Clear
6:52 AM 53.1 °F 42.1 °F 66% 30.07 in 10.0 mi NE 3.5 mph - N/A   Clear
7:52 AM 59.0 °F 43.0 °F 55% 30.07 in 10.0 mi NNE 8.1 mph - N/A   Clear
8:52 AM 68.0 °F 45.0 °F 43% 30.06 in 10.0 mi NNE 11.5 mph - N/A   Clear
9:52 AM 73.0 °F 45.0 °F 37% 30.05 in 10.0 mi NNE 10.4 mph - N/A   Clear
10:52 AM 78.1 °F 45.0 °F 31% 30.04 in 10.0 mi NNE 4.6 mph - N/A   Clear
11:52 AM 81.0 °F 44.1 °F 27% 30.01 in 10.0 mi NNE 5.8 mph - N/A   Clear
12:52 PM 84.9 °F 43.0 °F 23% 29.99 in 10.0 mi SE 5.8 mph - N/A   Clear
1:52 PM 87.1 °F 43.0 °F 21% 29.97 in 10.0 mi WNW 5.8 mph - N/A   Clear
2:52 PM 88.0 °F 44.1 °F 22% 29.94 in 10.0 mi Calm Calm - N/A   Clear
3:52 PM 89.1 °F 43.0 °F 20% 29.92 in 10.0 mi Calm Calm - N/A   Clear
4:52 PM 89.1 °F 43.0 °F 20% 29.90 in 10.0 mi Variable 4.6 mph - N/A   Clear
5:52 PM 88.0 °F 41.0 °F 19% 29.88 in 10.0 mi Calm Calm - N/A   Clear
6:52 PM 87.1 °F 41.0 °F 20% 29.86 in 10.0 mi Calm Calm - N/A   Clear
7:52 PM 80.1 °F 46.9 °F 31% 29.86 in 10.0 mi WNW 8.1 mph - N/A   Clear
8:52 PM 75.0 °F 46.0 °F 36% 29.86 in 10.0 mi WNW 10.4 mph - N/A   Clear
9:52 PM 70.0 °F 44.1 °F 39% 29.87 in 10.0 mi NNE 5.8 mph - N/A   Clear
10:52 PM 66.0 °F 45.0 °F 47% 29.86 in 10.0 mi North 6.9 mph - N/A   Clear
11:52 PM 64.0 °F 44.1 °F 48% 29.87 in 10.0 mi North 5.8 mph - N/A   Clear